When you browse on this site, cookies collect data to enhance your experience and personalize the content and advertising you see.
Visit our Privacy Policy to learn more. By continuing to use the site, you agree to this use of cookies and data.
  • In United Kingdom
  • List of Countries
  • For 7 days
  • Water Temperature
  • Satellite Maps
  • Weather Map
  • Weather Widgets
  • user-avatar
    Login

    Hourly Weather Pechykhvosty

    Today, 25 June, Tuesday

    Time Temperature Precipitation Wind Pressure Humidity
    00:00 +19°C° 0 mm 3 mps 747 mmHg 95%
    01:00 +18°C° 0 mm 3 mps 747 mmHg 95%
    02:00 +18°C° 0 mm 3 mps 747 mmHg 95%
    03:00 +18°C° 0 mm 3 mps 747 mmHg 96%
    04:00 +18°C° 0 mm 3 mps 747 mmHg 96%
    05:00 +17°C° 0 mm 3 mps 747 mmHg 96%
    06:00 +19°C° 0 mm 3 mps 748 mmHg 92%
    07:00 +20°C° 0 mm 3 mps 748 mmHg 89%
    08:00 +21°C° 0 mm 3 mps 749 mmHg 85%
    09:00 +22°C° 0 mm 3 mps 749 mmHg 80%
    10:00 +24°C° 0 mm 3 mps 749 mmHg 74%
    11:00 +25°C° 0 mm 3 mps 749 mmHg 69%
    12:00 +25°C° 0 mm 3 mps 749 mmHg 67%
    13:00 +26°C° 0 mm 3 mps 749 mmHg 66%
    14:00 +26°C° 0 mm 4 mps 749 mmHg 65%
    15:00 +26°C° 0 mm 3 mps 749 mmHg 65%
    16:00 +26°C° 0 mm 3 mps 748 mmHg 66%
    17:00 +26°C° 0 mm 3 mps 748 mmHg 66%
    18:00 +25°C° 0 mm 2 mps 748 mmHg 71%
    19:00 +23°C° 0 mm 2 mps 748 mmHg 75%
    20:00 +21°C° 0 mm 2 mps 748 mmHg 80%
    21:00 +20°C° 0 mm 2 mps 748 mmHg 82%
    22:00 +19°C° 0 mm 2 mps 748 mmHg 84%
    23:00 +18°C° 0 mm 2 mps 748 mmHg 86%

    Tomorrow, 26 June, Wednesday

    Time Temperature Precipitation Wind Pressure Humidity
    00:00 +17°C° 0 mm 2 mps 748 mmHg 88%
    01:00 +17°C° 0 mm 2 mps 748 mmHg 90%
    02:00 +17°C° 0 mm 2 mps 749 mmHg 92%
    03:00 +17°C° 0 mm 2 mps 748 mmHg 93%
    04:00 +17°C° 0 mm 2 mps 748 mmHg 94%
    05:00 +17°C° 0 mm 2 mps 747 mmHg 95%
    06:00 +18°C° 0 mm 2 mps 747 mmHg 91%
    07:00 +20°C° 0 mm 3 mps 747 mmHg 88%
    08:00 +22°C° 0 mm 3 mps 748 mmHg 84%
    09:00 +24°C° 0 mm 3 mps 747 mmHg 80%
    10:00 +25°C° 0 mm 3 mps 747 mmHg 76%
    11:00 +26°C° 0 mm 4 mps 747 mmHg 72%
    12:00 +27°C° 0 mm 3 mps 747 mmHg 69%
    13:00 +28°C° 0 mm 3 mps 747 mmHg 66%
    14:00 +28°C° 0 mm 3 mps 746 mmHg 63%
    15:00 +28°C° 0 mm 3 mps 746 mmHg 65%
    16:00 +28°C° 0 mm 3 mps 745 mmHg 66%
    17:00 +28°C° 0 mm 3 mps 744 mmHg 67%
    18:00 +27°C° 0 mm 3 mps 744 mmHg 73%
    19:00 +26°C° 0 mm 3 mps 743 mmHg 78%
    20:00 +24°C° 0 mm 3 mps 743 mmHg 84%
    21:00 +22°C° 0 mm 3 mps 743 mmHg 86%
    22:00 +21°C° 0 mm 4 mps 742 mmHg 88%
    23:00 +21°C° 0 mm 4 mps 742 mmHg 90%

    Day after tomorrow, 27 June, Thursday

    Time Temperature Precipitation Wind Pressure Humidity
    00:00 +21°C° 0 mm 4 mps 741 mmHg 90%
    01:00 +21°C° 0 mm 4 mps 741 mmHg 89%
    02:00 +21°C° 0 mm 4 mps 741 mmHg 89%
    03:00 +21°C° 0 mm 4 mps 740 mmHg 89%
    04:00 +21°C° 0 mm 5 mps 739 mmHg 89%
    05:00 +21°C° 0 mm 5 mps 738 mmHg 89%
    06:00 +22°C° 0.5 mm 5 mps 738 mmHg 89%
    07:00 +23°C° 0.5 mm 6 mps 738 mmHg 89%
    08:00 +24°C° 0.5 mm 6 mps 738 mmHg 90%
    09:00 +24°C° 0.5 mm 7 mps 738 mmHg 84%
    10:00 +26°C° 0.5 mm 8 mps 738 mmHg 79%
    11:00 +26°C° 0.5 mm 9 mps 738 mmHg 74%
    12:00 +24°C° 0 mm 9 mps 738 mmHg 74%
    13:00 +24°C° 0 mm 9 mps 738 mmHg 73%
    14:00 +23°C° 0 mm 8 mps 738 mmHg 73%
    15:00 +23°C° 0.1 mm 8 mps 738 mmHg 73%
    16:00 +23°C° 0.1 mm 8 mps 737 mmHg 73%
    17:00 +22°C° 0.1 mm 7 mps 737 mmHg 72%
    18:00 +21°C° 0.1 mm 7 mps 737 mmHg 76%
    19:00 +20°C° 0.1 mm 6 mps 737 mmHg 80%
    20:00 +17°C° 0.1 mm 5 mps 737 mmHg 84%
    21:00 +17°C° 0 mm 5 mps 737 mmHg 86%
    22:00 +16°C° 0 mm 5 mps 738 mmHg 88%
    23:00 +15°C° 0 mm 5 mps 738 mmHg 90%

    28 June, Friday

    Time Temperature Precipitation Wind Pressure Humidity
    00:00 +15°C° 0 mm 5 mps 738 mmHg 90%
    01:00 +14°C° 0 mm 5 mps 738 mmHg 90%
    02:00 +13°C° 0 mm 5 mps 738 mmHg 90%
    03:00 +13°C° 0 mm 5 mps 738 mmHg 89%
    04:00 +12°C° 0 mm 5 mps 738 mmHg 89%
    05:00 +10°C° 0 mm 5 mps 738 mmHg 88%
    06:00 +11°C° 0 mm 6 mps 739 mmHg 83%
    07:00 +11°C° 0 mm 6 mps 739 mmHg 78%
    08:00 +12°C° 0 mm 7 mps 739 mmHg 73%
    09:00 +14°C° 0 mm 7 mps 739 mmHg 69%
    10:00 +16°C° 0 mm 8 mps 739 mmHg 65%
    11:00 +17°C° 0 mm 8 mps 740 mmHg 60%
    12:00 +17°C° 0.1 mm 8 mps 740 mmHg 63%
    13:00 +17°C° 0.1 mm 8 mps 739 mmHg 65%
    14:00 +17°C° 0.1 mm 8 mps 739 mmHg 68%
    15:00 +18°C° 0.2 mm 8 mps 739 mmHg 69%
    16:00 +18°C° 0.2 mm 8 mps 739 mmHg 70%
    17:00 +18°C° 0.2 mm 7 mps 739 mmHg 71%
    18:00 +17°C° 0.1 mm 6 mps 739 mmHg 73%
    19:00 +16°C° 0.1 mm 5 mps 739 mmHg 75%
    20:00 +15°C° 0.1 mm 5 mps 739 mmHg 77%
    21:00 +14°C° 0 mm 4 mps 739 mmHg 77%
    22:00 +13°C° 0 mm 4 mps 740 mmHg 77%
    23:00 +12°C° 0 mm 4 mps 740 mmHg 77%

    29 June, Saturday

    Time Temperature Precipitation Wind Pressure Humidity
    00:00 +11°C° 0 mm 4 mps 740 mmHg 80%
    01:00 +11°C° 0 mm 4 mps 740 mmHg 83%
    02:00 +10°C° 0 mm 4 mps 740 mmHg 86%
    03:00 +10°C° 0 mm 4 mps 741 mmHg 88%
    04:00 +8°C° 0 mm 4 mps 741 mmHg 89%
    05:00 +8°C° 0 mm 5 mps 741 mmHg 90%
    06:00 +9°C° 0 mm 5 mps 741 mmHg 86%
    07:00 +10°C° 0 mm 5 mps 742 mmHg 82%
    08:00 +12°C° 0 mm 5 mps 742 mmHg 78%
    09:00 +13°C° 0 mm 5 mps 742 mmHg 72%
    10:00 +14°C° 0 mm 6 mps 742 mmHg 67%
    11:00 +15°C° 0 mm 6 mps 742 mmHg 62%
    12:00 +16°C° 0 mm 6 mps 742 mmHg 59%
    13:00 +16°C° 0 mm 6 mps 742 mmHg 57%
    14:00 +17°C° 0 mm 6 mps 742 mmHg 55%
    15:00 +17°C° 0 mm 6 mps 742 mmHg 60%
    16:00 +17°C° 0 mm 5 mps 742 mmHg 64%
    17:00 +17°C° 0 mm 5 mps 742 mmHg 69%
    18:00 +17°C° 0 mm 4 mps 742 mmHg 73%
    19:00 +15°C° 0 mm 4 mps 741 mmHg 77%
    20:00 +16°C° 0 mm 3 mps 741 mmHg 80%
    21:00 +14°C° 0 mm 3 mps 741 mmHg 79%
    22:00 +14°C° 0 mm 3 mps 741 mmHg 79%
    23:00 +13°C° 0 mm 3 mps 741 mmHg 78%

    30 June, Sunday

    Time Temperature Precipitation Wind Pressure Humidity
    00:00 +13°C° 0 mm 3 mps 741 mmHg 77%
    01:00 +13°C° 0 mm 3 mps 741 mmHg 75%
    02:00 +13°C° 0 mm 3 mps 741 mmHg 74%
    03:00 +13°C° 0.1 mm 4 mps 741 mmHg 75%
    04:00 +13°C° 0.1 mm 4 mps 740 mmHg 76%
    05:00 +13°C° 0.1 mm 4 mps 740 mmHg 77%
    06:00 +15°C° 0 mm 5 mps 740 mmHg 76%
    07:00 +16°C° 0 mm 5 mps 740 mmHg 76%
    08:00 +17°C° 0 mm 6 mps 741 mmHg 75%
    09:00 +20°C° 0 mm 6 mps 741 mmHg 72%
    10:00 +21°C° 0 mm 5 mps 741 mmHg 70%
    11:00 +23°C° 0 mm 5 mps 741 mmHg 67%
    12:00 +23°C° 0 mm 5 mps 741 mmHg 66%
    13:00 +25°C° 0 mm 5 mps 741 mmHg 65%
    14:00 +26°C° 0 mm 5 mps 741 mmHg 64%
    15:00 +26°C° 0 mm 5 mps 740 mmHg 65%
    16:00 +26°C° 0 mm 4 mps 740 mmHg 66%
    17:00 +26°C° 0 mm 4 mps 740 mmHg 67%
    18:00 +25°C° 0 mm 3 mps 740 mmHg 71%
    19:00 +24°C° 0 mm 2 mps 740 mmHg 75%
    20:00 +22°C° 0 mm 1 mps 740 mmHg 80%
    21:00 +20°C° 0 mm 2 mps 739 mmHg 81%
    22:00 +19°C° 0 mm 2 mps 739 mmHg 82%
    23:00 +18°C° 0 mm 3 mps 739 mmHg 83%
    Show more